| time (UTC) | temp F | wind direction | speed MPH | gust MPH | rain 1hr in | rain 24hr in | rain mn in | humidity % | barometer mb |
| 20260831210717 | 80 | 191 | 2.0 | 5.0 | 0.00 | 0.00 | 0.00 | 41 | 1021.4 |
| 20260831210213 | 79 | 164 | 5.0 | 10.0 | 0.00 | 0.00 | 0.00 | 35 | 1021.4 |
| 20260831205712 | 78 | 215 | 12.0 | 14.0 | 0.00 | 0.00 | 0.00 | 41 | 1021.5 |
| 20260831205209 | 79 | 220 | 6.0 | 11.0 | 0.00 | 0.00 | 0.00 | 38 | 1021.5 |
| 20260831204708 | 80 | 220 | 6.0 | 8.0 | 0.00 | 0.00 | 0.00 | 41 | 1021.5 |
| 20260831204208 | 81 | 222 | 8.0 | 14.0 | 0.00 | 0.00 | 0.00 | 38 | 1021.7 |
| 20260831203702 | 80 | 206 | 5.0 | 8.0 | 0.00 | 0.00 | 0.00 | 38 | 1021.7 |
| 20260831203201 | 81 | 219 | 10.0 | 13.0 | 0.00 | 0.00 | 0.00 | 36 | 1021.9 |
| 20260831202700 | 81 | 257 | 9.0 | 14.0 | 0.00 | 0.00 | 0.00 | 32 | 1021.7 |
| 20260831202155 | 81 | 234 | 4.0 | 9.0 | 0.00 | 0.00 | 0.00 | 32 | 1021.6 |
| 20260831201655 | 81 | 296 | 7.0 | 9.0 | 0.00 | 0.00 | 0.00 | 30 | 1021.9 |
| 20260831201154 | 81 | 288 | 9.0 | 14.0 | 0.00 | 0.00 | 0.00 | 29 | 1021.9 |
| 20260831200651 | 82 | 271 | 8.0 | 18.0 | 0.00 | 0.00 | 0.00 | 33 | 1021.9 |
| 20260831200150 | 82 | 277 | 8.0 | 17.0 | 0.00 | 0.00 | 0.00 | 31 | 1021.7 |
| 20260831195646 | 82 | 247 | 10.0 | 11.0 | 0.00 | 0.00 | 0.00 | 28 | 1022.1 |
| 20260831195141 | 82 | 257 | 9.0 | 11.0 | 0.00 | 0.00 | 0.00 | 29 | 1022.0 |
| 20260831194636 | 81 | 199 | 5.0 | 10.0 | 0.00 | 0.00 | 0.00 | 36 | 1022.3 |
| 20260831194131 | 81 | 264 | 7.0 | 14.0 | 0.00 | 0.00 | 0.00 | 42 | 1022.2 |
| 20260831193626 | 81 | 238 | 9.0 | 15.0 | 0.00 | 0.00 | 0.00 | 38 | 1022.1 |
| 20260831193121 | 80 | 242 | 5.0 | 6.0 | 0.00 | 0.00 | 0.00 | 38 | 1022.1 |
| 20260831192616 | 80 | 243 | 5.0 | 7.0 | 0.00 | 0.00 | 0.00 | 39 | 1022.2 |
| 20260831192112 | 80 | 228 | 6.0 | 10.0 | 0.00 | 0.00 | 0.00 | 35 | 1022.3 |
| 20260831191607 | 80 | 224 | 9.0 | 16.0 | 0.00 | 0.00 | 0.00 | 34 | 1022.3 |
| 20260831191103 | 80 | 206 | 11.0 | 16.0 | 0.00 | 0.00 | 0.00 | 38 | 1022.6 |
| 20260831190558 | 80 | 228 | 9.0 | 16.0 | 0.00 | 0.00 | 0.00 | 41 | 1022.6 |
| 20260831190056 | 80 | 231 | 9.0 | 15.0 | 0.00 | 0.00 | 0.00 | 40 | 1022.5 |
| 20260831185553 | 80 | 250 | 9.0 | 15.0 | 0.00 | 0.00 | 0.00 | 36 | 1022.3 |
| 20260831185048 | 80 | 237 | 12.0 | 14.0 | 0.00 | 0.00 | 0.00 | 39 | 1022.3 |
| 20260831184548 | 79 | 213 | 8.0 | 14.0 | 0.00 | 0.00 | 0.00 | 40 | 1022.7 |
| 20260831184044 | 79 | 221 | 9.0 | 13.0 | 0.00 | 0.00 | 0.00 | 42 | 1022.7 |
| 20260831183542 | 79 | 229 | 7.0 | 10.0 | 0.00 | 0.00 | 0.00 | 38 | 1022.7 |
| 20260831183037 | 78 | 219 | 5.0 | 9.0 | 0.00 | 0.00 | 0.00 | 36 | 1022.7 |
| 20260831182536 | 77 | 208 | 5.0 | 8.0 | 0.00 | 0.00 | 0.00 | 44 | 1022.8 |
| 20260831182033 | 78 | 231 | 8.0 | 11.0 | 0.00 | 0.00 | 0.00 | 46 | 1022.9 |
| 20260831181532 | 77 | 210 | 5.0 | 6.0 | 0.00 | 0.00 | 0.00 | 39 | 1022.9 |
| 20260831181032 | 77 | 271 | 5.0 | 7.0 | 0.00 | 0.00 | 0.00 | 40 | 1023.2 |
| 20260831180527 | 77 | 243 | 5.0 | 7.0 | 0.00 | 0.00 | 0.00 | 41 | 1022.9 |
| 20260831180022 | 77 | 272 | 9.0 | 13.0 | 0.00 | 0.00 | 0.00 | 41 | 1023.2 |
| 20260831175517 | 77 | 276 | 11.0 | 15.0 | 0.00 | 0.00 | 0.00 | 41 | 1023.2 |
| 20260831175015 | 78 | 241 | 6.0 | 10.0 | 0.00 | 0.00 | 0.00 | 42 | 1023.2 |
| 20260831174509 | 78 | 259 | 6.0 | 13.0 | 0.00 | 0.00 | 0.00 | 38 | 1023.0 |
| 20260831174009 | 77 | 261 | 8.0 | 9.0 | 0.00 | 0.00 | 0.00 | 40 | 1023.3 |
| 20260831173507 | 77 | 261 | 8.0 | 10.0 | 0.00 | 0.00 | 0.00 | 41 | 1022.9 |
| 20260831173003 | 77 | 203 | 4.0 | 8.0 | 0.00 | 0.00 | 0.00 | 41 | 1023.3 |
| 20260831172458 | 76 | 233 | 7.0 | 11.0 | 0.00 | 0.00 | 0.00 | 43 | 1023.0 |
| 20260831171953 | 76 | 276 | 8.0 | 9.0 | 0.00 | 0.00 | 0.00 | 40 | 1023.2 |
| 20260831171449 | 76 | 224 | 5.0 | 9.0 | 0.00 | 0.00 | 0.00 | 41 | 1023.3 |
| 20260831170946 | 76 | 234 | 8.0 | 11.0 | 0.00 | 0.00 | 0.00 | 41 | 1023.2 |
| 20260831170442 | 76 | 258 | 9.0 | 10.0 | 0.00 | 0.00 | 0.00 | 42 | 1023.2 |
| 20260831165938 | 76 | 267 | 10.0 | 14.0 | 0.00 | 0.00 | 0.00 | 43 | 1023.2 |
| 20260831165434 | 76 | 261 | 6.0 | 15.0 | 0.00 | 0.00 | 0.00 | 42 | 1023.2 |
| 20260831164931 | 76 | 264 | 10.0 | 17.0 | 0.00 | 0.00 | 0.00 | 42 | 1023.3 |
| 20260831164426 | 76 | 298 | 9.0 | 16.0 | 0.00 | 0.00 | 0.00 | 41 | 1023.2 |
| 20260831163921 | 75 | 272 | 7.0 | 15.0 | 0.00 | 0.00 | 0.00 | 42 | 1023.3 |
| 20260831163416 | 76 | 303 | 7.0 | 16.0 | 0.00 | 0.00 | 0.00 | 41 | 1023.3 |
| 20260831162915 | 76 | 297 | 10.0 | 17.0 | 0.00 | 0.00 | 0.00 | 43 | 1023.0 |
| 20260831162411 | 75 | 281 | 9.0 | 13.0 | 0.00 | 0.00 | 0.00 | 43 | 1023.4 |
| 20260831161909 | 74 | 316 | 15.0 | 18.0 | 0.00 | 0.00 | 0.00 | 44 | 1022.9 |
| 20260831161406 | 74 | 298 | 13.0 | 16.0 | 0.00 | 0.00 | 0.00 | 44 | 1023.0 |
| 20260831160901 | 73 | 272 | 9.0 | 13.0 | 0.00 | 0.00 | 0.00 | 47 | 1023.4 |
| 20260831160356 | 73 | 224 | 7.0 | 21.0 | 0.00 | 0.00 | 0.00 | 50 | 1023.4 |
| 20260831155851 | 71 | 243 | 13.0 | 15.0 | 0.00 | 0.00 | 0.00 | 50 | 1023.3 |
| 20260831155350 | 71 | 233 | 8.0 | 15.0 | 0.00 | 0.00 | 0.00 | 52 | 1023.5 |
| 20260831154846 | 70 | 248 | 5.0 | 11.0 | 0.00 | 0.00 | 0.00 | 55 | 1023.4 |
| 20260831154343 | 70 | 239 | 5.0 | 9.0 | 0.00 | 0.00 | 0.00 | 54 | 1023.3 |
| 20260831153841 | 69 | 237 | 4.0 | 6.0 | 0.00 | 0.00 | 0.00 | 54 | 1023.2 |
| 20260831153337 | 69 | 272 | 8.0 | 10.0 | 0.00 | 0.00 | 0.00 | 51 | 1023.3 |
| 20260831152833 | 69 | 243 | 9.0 | 10.0 | 0.00 | 0.00 | 0.00 | 51 | 1023.3 |
| 20260831152328 | 69 | 247 | 7.0 | 9.0 | 0.00 | 0.00 | 0.00 | 51 | 1022.9 |
| 20260831151823 | 69 | 284 | 7.0 | 9.0 | 0.00 | 0.00 | 0.00 | 51 | 1023.2 |
| 20260831151322 | 69 | 304 | 9.0 | 10.0 | 0.00 | 0.00 | 0.00 | 49 | 1023.3 |
| 20260831150818 | 68 | 243 | 5.0 | 6.0 | 0.00 | 0.00 | 0.00 | 53 | 1023.3 |
| 20260831150313 | 68 | 259 | 5.0 | 8.0 | 0.00 | 0.00 | 0.00 | 54 | 1023.0 |
| 20260831145806 | 69 | 263 | 7.0 | 9.0 | 0.00 | 0.00 | 0.00 | 51 | 1023.2 |
| 20260831145306 | 69 | 242 | 5.0 | 8.0 | 0.00 | 0.00 | 0.00 | 50 | 1023.0 |
| 20260831144758 | 70 | 282 | 9.0 | 14.0 | 0.00 | 0.00 | 0.00 | 48 | 1022.9 |
| 20260831144254 | 69 | 259 | 14.0 | 18.0 | 0.00 | 0.00 | 0.00 | 52 | 1023.0 |
| 20260831143754 | 68 | 279 | 11.0 | 15.0 | 0.00 | 0.00 | 0.00 | 52 | 1022.9 |
| 20260831143249 | 68 | 230 | 10.0 | 14.0 | 0.00 | 0.00 | 0.00 | 55 | 1022.7 |
| 20260831142744 | 67 | 239 | 8.0 | 10.0 | 0.00 | 0.00 | 0.00 | 56 | 1022.6 |
| 20260831142239 | 66 | 248 | 11.0 | 16.0 | 0.00 | 0.00 | 0.00 | 58 | 1022.7 |
| 20260831141734 | 65 | 248 | 4.0 | 8.0 | 0.00 | 0.00 | 0.00 | 56 | 1022.7 |
| 20260831141229 | 64 | 223 | 5.0 | 8.0 | 0.00 | 0.00 | 0.00 | 60 | 1022.5 |
| 20260831140728 | 63 | 275 | 5.0 | 8.0 | 0.00 | 0.00 | 0.00 | 63 | 1022.5 |
| 20260831140223 | 63 | 306 | 6.0 | 7.0 | 0.00 | 0.00 | 0.00 | 63 | 1022.6 |
| 20260831135721 | 63 | 292 | 7.0 | 7.0 | 0.00 | 0.00 | 0.00 | 62 | 1022.6 |
| 20260831135217 | 63 | 277 | 4.0 | 8.0 | 0.00 | 0.00 | 0.00 | 61 | 1022.5 |
| 20260831134712 | 62 | 278 | 6.0 | 9.0 | 0.00 | 0.00 | 0.00 | 60 | 1022.6 |
| 20260831134209 | 62 | 279 | 5.0 | 7.0 | 0.00 | 0.00 | 0.00 | 61 | 1022.5 |
| 20260831133707 | 62 | 285 | 6.0 | 9.0 | 0.00 | 0.00 | 0.00 | 62 | 1022.3 |
| 20260831133202 | 60 | 226 | 7.0 | 10.0 | 0.00 | 0.00 | 0.00 | 61 | 1022.5 |
| 20260831132657 | 59 | 260 | 7.0 | 9.0 | 0.00 | 0.00 | 0.00 | 66 | 1022.5 |
| 20260831132156 | 59 | 279 | 9.0 | 10.0 | 0.00 | 0.00 | 0.00 | 67 | 1022.5 |
| 20260831131651 | 59 | 310 | 6.0 | 8.0 | 0.00 | 0.00 | 0.00 | 67 | 1022.1 |
| 20260831131148 | 59 | 291 | 9.0 | 10.0 | 0.00 | 0.00 | 0.00 | 66 | 1022.5 |
| 20260831130643 | 60 | 308 | 9.0 | 9.0 | 0.00 | 0.00 | 0.00 | 65 | 1022.2 |
| 20260831130138 | 59 | 285 | 7.0 | 9.0 | 0.00 | 0.00 | 0.00 | 64 | 1022.1 |
| 20260831125636 | 59 | 266 | 7.0 | 10.0 | 0.00 | 0.00 | 0.00 | 64 | 1022.1 |
| 20260831125133 | 59 | 307 | 8.0 | 10.0 | 0.00 | 0.00 | 0.00 | 64 | 1022.0 |
| 20260831124628 | 60 | 288 | 6.0 | 8.0 | 0.00 | 0.00 | 0.00 | 63 | 1022.0 |
| 20260831124124 | 61 | 283 | 5.0 | 8.0 | 0.00 | 0.00 | 0.00 | 62 | 1022.0 |
| 20260831123624 | 63 | 296 | 7.0 | 11.0 | 0.00 | 0.00 | 0.00 | 58 | 1022.0 |
| 20260831123123 | 62 | 281 | 11.0 | 14.0 | 0.00 | 0.00 | 0.00 | 57 | 1022.1 |
| 20260831122623 | 62 | 251 | 7.0 | 14.0 | 0.00 | 0.00 | 0.00 | 57 | 1021.6 |
| 20260831122119 | 61 | 263 | 10.0 | 14.0 | 0.00 | 0.00 | 0.00 | 60 | 1021.6 |
| 20260831121617 | 61 | 269 | 9.0 | 11.0 | 0.00 | 0.00 | 0.00 | 61 | 1021.7 |
| 20260831121114 | 61 | 294 | 11.0 | 15.0 | 0.00 | 0.00 | 0.00 | 60 | 1021.6 |
| 20260831120609 | 60 | 276 | 8.0 | 15.0 | 0.00 | 0.00 | 0.00 | 61 | 1021.6 |
| 20260831120104 | 59 | 244 | 11.0 | 13.0 | 0.00 | 0.00 | 0.00 | 62 | 1021.5 |
| 20260831115600 | 59 | 265 | 8.0 | 11.0 | 0.00 | 0.00 | 0.00 | 64 | 1021.4 |
| 20260831115055 | 60 | 305 | 7.0 | 10.0 | 0.00 | 0.00 | 0.00 | 62 | 1021.9 |
| 20260831114554 | 60 | 307 | 11.0 | 13.0 | 0.00 | 0.00 | 0.00 | 58 | 1021.5 |
| 20260831114049 | 61 | 286 | 7.0 | 8.0 | 0.00 | 0.00 | 0.00 | 61 | 1021.4 |
| 20260831113548 | 63 | 299 | 9.0 | 10.0 | 0.00 | 0.00 | 0.00 | 56 | 1021.5 |
| 20260831113044 | 62 | 287 | 7.0 | 9.0 | 0.00 | 0.00 | 0.00 | 56 | 1021.2 |
| 20260831112543 | 62 | 266 | 8.0 | 9.0 | 0.00 | 0.00 | 0.00 | 58 | 1021.2 |
| 20260831112038 | 62 | 257 | 9.0 | 11.0 | 0.00 | 0.00 | 0.00 | 57 | 1021.2 |
| 20260831111535 | 63 | 244 | 7.0 | 10.0 | 0.00 | 0.00 | 0.00 | 57 | 1021.2 |
| 20260831111030 | 63 | 227 | 8.0 | 11.0 | 0.00 | 0.00 | 0.00 | 55 | 1021.2 |
| 20260831110525 | 62 | 284 | 12.0 | 18.0 | 0.00 | 0.00 | 0.00 | 55 | 1021.2 |
| 20260831110020 | 62 | 275 | 13.0 | 18.0 | 0.00 | 0.00 | 0.00 | 58 | 1021.0 |
| 20260831105519 | 61 | 264 | 15.0 | 18.0 | 0.00 | 0.00 | 0.00 | 59 | 1020.8 |
| 20260831105015 | 59 | 284 | 9.0 | 14.0 | 0.00 | 0.00 | 0.00 | 63 | 1020.9 |
| 20260831104511 | 59 | 294 | 9.0 | 11.0 | 0.00 | 0.00 | 0.00 | 65 | 1020.9 |
| 20260831104007 | 60 | 262 | 4.0 | 9.0 | 0.00 | 0.00 | 0.00 | 65 | 1020.9 |
| 20260831103506 | 60 | 254 | 4.0 | 7.0 | 0.00 | 0.00 | 0.00 | 65 | 1020.8 |
| 20260831103002 | 60 | 280 | 3.0 | 6.0 | 0.00 | 0.00 | 0.00 | 64 | 1020.8 |
| 20260831102457 | 59 | 217 | 2.0 | 5.0 | 0.00 | 0.00 | 0.00 | 66 | 1020.8 |
| 20260831101952 | 58 | 197 | 1.0 | 5.0 | 0.00 | 0.00 | 0.00 | 68 | 1020.8 |
| 20260831101447 | 56 | 180 | 0.0 | 2.0 | 0.00 | 0.00 | 0.00 | 74 | 1020.6 |
| 20260831100943 | 56 | 196 | 5.0 | 5.0 | 0.00 | 0.00 | 0.00 | 77 | 1020.4 |
| 20260831100439 | 56 | 209 | 1.0 | 3.0 | 0.00 | 0.00 | 0.00 | 76 | 1020.7 |
| 20260831095934 | 56 | 207 | 3.0 | 3.0 | 0.00 | 0.00 | 0.00 | 76 | 1020.7 |
| 20260831095433 | 56 | 216 | 3.0 | 5.0 | 0.00 | 0.00 | 0.00 | 79 | 1020.8 |
| 20260831094928 | 57 | 211 | 3.0 | 5.0 | 0.00 | 0.00 | 0.00 | 75 | 1020.4 |
| 20260831094424 | 56 | 217 | 3.0 | 3.0 | 0.00 | 0.00 | 0.00 | 72 | 1020.4 |
| 20260831093920 | 56 | 242 | 2.0 | 2.0 | 0.00 | 0.00 | 0.00 | 76 | 1020.6 |
| 20260831093414 | 56 | 272 | 3.0 | 5.0 | 0.00 | 0.00 | 0.00 | 75 | 1020.2 |
| 20260831092911 | 56 | 287 | 4.0 | 6.0 | 0.00 | 0.00 | 0.00 | 76 | 1020.4 |
| 20260831092407 | 55 | 214 | 1.0 | 2.0 | 0.00 | 0.00 | 0.00 | 77 | 1020.3 |
| 20260831091901 | 56 | 208 | 1.0 | 3.0 | 0.00 | 0.00 | 0.00 | 77 | 1020.2 |
| 20260831091356 | 56 | 209 | 2.0 | 5.0 | 0.00 | 0.00 | 0.00 | 76 | 1020.2 |
| 20260831090852 | 57 | 243 | 3.0 | 6.0 | 0.00 | 0.00 | 0.00 | 75 | 1020.4 |
| 20260831090342 | 58 | 249 | 3.0 | 5.0 | 0.00 | 0.00 | 0.00 | 73 | 1020.3 |
| 20260831085839 | 57 | 249 | 3.0 | 3.0 | 0.00 | 0.00 | 0.00 | 74 | 1020.3 |
| 20260831085338 | 58 | 226 | 3.0 | 5.0 | 0.00 | 0.00 | 0.00 | 73 | 1020.0 |
| 20260831084838 | 58 | 223 | 2.0 | 5.0 | 0.00 | 0.00 | 0.00 | 72 | 1020.6 |
| 20260831084335 | 58 | 216 | 3.0 | 6.0 | 0.00 | 0.00 | 0.00 | 74 | 1020.4 |
| 20260831083831 | 58 | 273 | 5.0 | 7.0 | 0.00 | 0.00 | 0.00 | 74 | 1020.2 |
| 20260831083327 | 58 | 261 | 3.0 | 5.0 | 0.00 | 0.00 | 0.00 | 72 | 1020.7 |
| 20260831082825 | 57 | 223 | 3.0 | 5.0 | 0.00 | 0.00 | 0.00 | 75 | 1020.3 |
| 20260831082320 | 58 | 326 | 5.0 | 6.0 | 0.00 | 0.00 | 0.00 | 75 | 1020.4 |
| 20260831081816 | 59 | 192 | 0.0 | 2.0 | 0.00 | 0.00 | 0.00 | 71 | 1020.2 |
| 20260831081311 | 59 | 241 | 0.0 | 0.0 | 0.00 | 0.00 | 0.00 | 71 | 1020.3 |
| 20260831080806 | 59 | 286 | 4.0 | 6.0 | 0.00 | 0.00 | 0.00 | 69 | 1020.6 |
| 20260831080301 | 60 | 240 | 5.0 | 7.0 | 0.00 | 0.00 | 0.00 | 73 | 1020.7 |
| 20260831075757 | 61 | 229 | 2.0 | 2.0 | 0.00 | 0.00 | 0.00 | 67 | 1020.4 |
| 20260831075252 | 58 | 219 | 3.0 | 3.0 | 0.00 | 0.00 | 0.00 | 69 | 1020.4 |
| 20260831074752 | 58 | 201 | 0.0 | 0.0 | 0.00 | 0.00 | 0.00 | 75 | 1020.6 |
| 20260831074245 | 58 | 221 | 2.0 | 3.0 | 0.00 | 0.00 | 0.00 | 73 | 1020.4 |
| 20260831073742 | 57 | 241 | 0.0 | 0.0 | 0.00 | 0.00 | 0.00 | 75 | 1020.7 |
| 20260831073240 | 58 | 212 | 1.0 | 2.0 | 0.00 | 0.00 | 0.00 | 76 | 1020.7 |
| 20260831072736 | 59 | 200 | 2.0 | 2.0 | 0.00 | 0.00 | 0.00 | 74 | 1020.6 |
| 20260831072232 | 58 | 199 | 2.0 | 2.0 | 0.00 | 0.00 | 0.00 | 74 | 1020.7 |
| 20260831071726 | 57 | 219 | 2.0 | 5.0 | 0.00 | 0.00 | 0.00 | 76 | 1020.7 |
| 20260831071221 | 58 | 204 | 0.0 | 0.0 | 0.00 | 0.00 | 0.00 | 76 | 1020.8 |
| 20260831070720 | 60 | 196 | 0.0 | 0.0 | 0.00 | 0.00 | 0.00 | 73 | 1020.9 |
| 20260831070215 | 60 | 197 | 0.0 | 0.0 | 0.00 | 0.00 | 0.00 | 70 | 1020.9 |
| 20260831065714 | 61 | 195 | 0.0 | 0.0 | 0.00 | 0.00 | 0.00 | 71 | 1020.9 |
| 20260831065213 | 61 | 197 | 0.0 | 0.0 | 0.00 | 0.00 | 0.00 | 67 | 1020.8 |
| 20260831064708 | 61 | 227 | 2.0 | 3.0 | 0.00 | 0.00 | 0.00 | 68 | 1021.0 |
| 20260831064203 | 60 | 241 | 3.0 | 6.0 | 0.00 | 0.00 | 0.00 | 66 | 1021.2 |
| 20260831063659 | 60 | 212 | 2.0 | 2.0 | 0.00 | 0.00 | 0.00 | 71 | 1021.0 |
| 20260831063154 | 60 | 181 | 1.0 | 2.0 | 0.00 | 0.00 | 0.00 | 70 | 1021.2 |
| 20260831062654 | 60 | 224 | 3.0 | 3.0 | 0.00 | 0.00 | 0.00 | 69 | 1021.3 |
| 20260831062153 | 62 | 279 | 4.0 | 6.0 | 0.00 | 0.00 | 0.00 | 69 | 1021.3 |
| 20260831061651 | 61 | 251 | 5.0 | 6.0 | 0.00 | 0.00 | 0.00 | 67 | 1021.2 |
| 20260831061148 | 62 | 232 | 4.0 | 5.0 | 0.00 | 0.00 | 0.00 | 68 | 1021.0 |
| 20260831060638 | 63 | 221 | 3.0 | 5.0 | 0.00 | 0.00 | 0.00 | 63 | 1020.9 |
| 20260831060138 | 62 | 257 | 4.0 | 6.0 | 0.00 | 0.00 | 0.00 | 64 | 1021.3 |
| 20260831055637 | 61 | 216 | 4.0 | 8.0 | 0.00 | 0.00 | 0.00 | 66 | 1021.3 |
| 20260831055132 | 60 | 218 | 2.0 | 3.0 | 0.00 | 0.00 | 0.00 | 70 | 1021.0 |
| 20260831054632 | 60 | 219 | 3.0 | 5.0 | 0.00 | 0.00 | 0.00 | 71 | 1021.3 |
| 20260831054131 | 62 | 223 | 3.0 | 3.0 | 0.00 | 0.00 | 0.00 | 68 | 1021.4 |
| 20260831053626 | 62 | 256 | 3.0 | 5.0 | 0.00 | 0.00 | 0.00 | 66 | 1021.0 |
| 20260831053125 | 62 | 211 | 3.0 | 5.0 | 0.00 | 0.00 | 0.00 | 68 | 1021.3 |
| 20260831052625 | 61 | 198 | 0.0 | 0.0 | 0.00 | 0.00 | 0.00 | 69 | 1021.3 |
| 20260831052124 | 61 | 199 | 0.0 | 0.0 | 0.00 | 0.00 | 0.00 | 69 | 1021.4 |
| 20260831051622 | 61 | 213 | 0.0 | 0.0 | 0.00 | 0.00 | 0.00 | 70 | 1021.0 |
| 20260831051121 | 61 | 196 | 0.0 | 2.0 | 0.00 | 0.00 | 0.00 | 70 | 1021.3 |
| 20260831050616 | 62 | 195 | 0.0 | 0.0 | 0.00 | 0.00 | 0.00 | 69 | 1021.2 |
| 20260831050115 | 62 | 192 | 0.0 | 1.0 | 0.00 | 0.00 | 0.00 | 67 | 1021.2 |
| 20260831045614 | 62 | 203 | 0.0 | 0.0 | 0.00 | 0.00 | 0.00 | 68 | 1021.2 |
| 20260831045110 | 62 | 204 | 1.0 | 2.0 | 0.00 | 0.00 | 0.00 | 68 | 1021.4 |
| 20260831044605 | 61 | 207 | 2.0 | 2.0 | 0.00 | 0.00 | 0.00 | 71 | 1021.3 |
| 20260831044100 | 62 | 212 | 2.0 | 3.0 | 0.00 | 0.00 | 0.00 | 69 | 1021.4 |
| 20260831043555 | 63 | 214 | 2.0 | 5.0 | 0.00 | 0.00 | 0.00 | 66 | 1021.4 |
| 20260831043051 | 62 | 228 | 3.0 | 5.0 | 0.00 | 0.00 | 0.00 | 66 | 1021.5 |
| 20260831042550 | 63 | 226 | 5.0 | 7.0 | 0.00 | 0.00 | 0.00 | 66 | 1021.4 |
| 20260831042045 | 63 | 242 | 4.0 | 6.0 | 0.00 | 0.00 | 0.00 | 65 | 1021.6 |
| 20260831041540 | 63 | 244 | 4.0 | 7.0 | 0.00 | 0.00 | 0.00 | 66 | 1021.5 |
| 20260831041039 | 63 | 234 | 5.0 | 7.0 | 0.00 | 0.00 | 0.00 | 65 | 1021.4 |
| 20260831040534 | 62 | 242 | 4.0 | 6.0 | 0.00 | 0.00 | 0.00 | 66 | 1021.4 |
| 20260831040033 | 62 | 230 | 3.0 | 5.0 | 0.00 | 0.00 | 0.00 | 65 | 1021.4 |
| 20260831035525 | 61 | 238 | 4.0 | 6.0 | 0.00 | 0.00 | 0.00 | 70 | 1021.4 |
| 20260831035021 | 62 | 210 | 4.0 | 6.0 | 0.00 | 0.00 | 0.00 | 67 | 1021.3 |
| 20260831034515 | 63 | 225 | 0.0 | 0.0 | 0.00 | 0.00 | 0.00 | 66 | 1021.2 |
| 20260831034010 | 63 | 203 | 4.0 | 6.0 | 0.00 | 0.00 | 0.00 | 65 | 1021.3 |
| 20260831033506 | 62 | 210 | 2.0 | 2.0 | 0.00 | 0.00 | 0.00 | 66 | 1020.9 |
| 20260831033001 | 62 | 211 | 2.0 | 3.0 | 0.00 | 0.00 | 0.00 | 66 | 1021.4 |
| 20260831032501 | 62 | 204 | 1.0 | 2.0 | 0.00 | 0.00 | 0.00 | 66 | 1021.3 |
| 20260831031956 | 62 | 199 | 0.0 | 0.0 | 0.00 | 0.00 | 0.00 | 66 | 1021.0 |
| 20260831031456 | 62 | 198 | 0.0 | 0.0 | 0.00 | 0.00 | 0.00 | 67 | 1021.2 |
| 20260831030955 | 61 | 199 | 0.0 | 0.0 | 0.00 | 0.00 | 0.00 | 67 | 1020.9 |
| 20260831030454 | 61 | 207 | 1.0 | 2.0 | 0.00 | 0.00 | 0.00 | 67 | 1020.9 |
| 20260831025952 | 62 | 206 | 2.0 | 3.0 | 0.00 | 0.00 | 0.00 | 68 | 1021.2 |
| 20260831025452 | 62 | 208 | 3.0 | 5.0 | 0.00 | 0.00 | 0.00 | 64 | 1020.7 |
| 20260831024947 | 62 | 209 | 3.0 | 3.0 | 0.00 | 0.00 | 0.00 | 65 | 1021.0 |
| 20260831024443 | 61 | 201 | 0.0 | 0.0 | 0.00 | 0.00 | 0.00 | 65 | 1020.9 |
| 20260831023942 | 61 | 199 | 2.0 | 2.0 | 0.00 | 0.00 | 0.00 | 67 | 1020.7 |
| 20260831023440 | 61 | 212 | 5.0 | 6.0 | 0.00 | 0.00 | 0.00 | 67 | 1020.8 |
| 20260831022936 | 59 | 213 | 5.0 | 7.0 | 0.00 | 0.00 | 0.00 | 70 | 1020.7 |
| 20260831022434 | 60 | 208 | 3.0 | 3.0 | 0.00 | 0.00 | 0.00 | 73 | 1020.4 |
| 20260831021930 | 61 | 212 | 4.0 | 5.0 | 0.00 | 0.00 | 0.00 | 69 | 1020.3 |
| 20260831021424 | 62 | 209 | 3.0 | 3.0 | 0.00 | 0.00 | 0.00 | 67 | 1020.2 |
| 20260831020920 | 63 | 216 | 5.0 | 7.0 | 0.00 | 0.00 | 0.00 | 63 | 1020.3 |
| 20260831020419 | 62 | 196 | 4.0 | 5.0 | 0.00 | 0.00 | 0.00 | 64 | 1020.4 |
| 20260831015914 | 63 | 190 | 4.0 | 5.0 | 0.00 | 0.00 | 0.00 | 63 | 1020.2 |
| 20260831015410 | 64 | 200 | 5.0 | 6.0 | 0.00 | 0.00 | 0.00 | 62 | 1020.3 |
| 20260831014904 | 64 | 179 | 6.0 | 7.0 | 0.00 | 0.00 | 0.00 | 60 | 1020.4 |
| 20260831014359 | 63 | 180 | 7.0 | 9.0 | 0.00 | 0.00 | 0.00 | 61 | 1020.3 |
| 20260831013855 | 62 | 192 | 8.0 | 9.0 | 0.00 | 0.00 | 0.00 | 67 | 1020.2 |
| 20260831013350 | 62 | 218 | 6.0 | 8.0 | 0.00 | 0.00 | 0.00 | 65 | 1020.1 |
| 20260831012844 | 64 | 212 | 5.0 | 7.0 | 0.00 | 0.00 | 0.00 | 64 | 1019.9 |
| 20260831012339 | 62 | 214 | 7.0 | 8.0 | 0.00 | 0.00 | 0.00 | 63 | 1020.1 |
| 20260831011834 | 62 | 227 | 7.0 | 8.0 | 0.00 | 0.00 | 0.00 | 65 | 1020.0 |
| 20260831011329 | 63 | 225 | 6.0 | 7.0 | 0.00 | 0.00 | 0.00 | 65 | 1019.9 |
| 20260831010824 | 63 | 212 | 7.0 | 7.0 | 0.00 | 0.00 | 0.00 | 64 | 1020.0 |
| 20260831010323 | 64 | 228 | 7.0 | 7.0 | 0.00 | 0.00 | 0.00 | 65 | 1019.7 |
| 20260831005819 | 65 | 224 | 5.0 | 6.0 | 0.00 | 0.00 | 0.00 | 62 | 1019.7 |
| 20260831005315 | 65 | 235 | 5.0 | 7.0 | 0.00 | 0.00 | 0.00 | 60 | 1020.0 |
| 20260831004809 | 66 | 222 | 5.0 | 7.0 | 0.00 | 0.00 | 0.00 | 59 | 1020.4 |
| 20260831004306 | 66 | 234 | 4.0 | 6.0 | 0.00 | 0.00 | 0.00 | 58 | 1020.1 |
| 20260831003801 | 66 | 223 | 7.0 | 9.0 | 0.00 | 0.00 | 0.00 | 58 | 1020.2 |
| 20260831003258 | 67 | 228 | 7.0 | 9.0 | 0.00 | 0.00 | 0.00 | 58 | 1020.0 |
| 20260831002757 | 68 | 248 | 7.0 | 8.0 | 0.00 | 0.00 | 0.00 | 55 | 1020.2 |
| 20260831002256 | 69 | 242 | 8.0 | 13.0 | 0.00 | 0.00 | 0.00 | 52 | 1020.2 |
| 20260831001752 | 69 | 236 | 10.0 | 13.0 | 0.00 | 0.00 | 0.00 | 52 | 1020.2 |
| 20260831001247 | 69 | 257 | 10.0 | 13.0 | 0.00 | 0.00 | 0.00 | 51 | 1020.3 |
| 20260831000744 | 69 | 241 | 7.0 | 13.0 | 0.00 | 0.00 | 0.00 | 53 | 1020.1 |
| 20260831000241 | 69 | 253 | 8.0 | 11.0 | 0.00 | 0.00 | 0.00 | 53 | 1020.4 |
| 20260830235738 | 69 | 234 | 11.0 | 14.0 | 0.00 | 0.00 | 0.00 | 52 | 1020.2 |
| 20260830235232 | 69 | 240 | 9.0 | 11.0 | 0.00 | 0.00 | 0.00 | 54 | 1020.3 |
| 20260830234727 | 69 | 237 | 5.0 | 11.0 | 0.00 | 0.00 | 0.00 | 54 | 1019.7 |
| 20260830234224 | 70 | 251 | 7.0 | 9.0 | 0.00 | 0.00 | 0.00 | 54 | 1020.0 |
| 20260830233719 | 71 | 251 | 7.0 | 14.0 | 0.00 | 0.00 | 0.00 | 50 | 1020.0 |
| 20260830233214 | 71 | 289 | 7.0 | 13.0 | 0.00 | 0.00 | 0.00 | 50 | 1019.9 |
| 20260830232710 | 71 | 273 | 11.0 | 14.0 | 0.00 | 0.00 | 0.00 | 48 | 1019.7 |
| 20260830232206 | 71 | 217 | 9.0 | 11.0 | 0.00 | 0.00 | 0.00 | 50 | 1020.0 |
| 20260830231702 | 71 | 245 | 9.0 | 14.0 | 0.00 | 0.00 | 0.00 | 48 | 1020.0 |
| 20260830231201 | 71 | 283 | 10.0 | 15.0 | 0.00 | 0.00 | 0.00 | 50 | 1020.0 |
| 20260830230656 | 71 | 231 | 11.0 | 16.0 | 0.00 | 0.00 | 0.00 | 50 | 1020.0 |
| 20260830230156 | 72 | 245 | 10.0 | 16.0 | 0.00 | 0.00 | 0.00 | 48 | 1020.1 |
| 20260830225651 | 72 | 309 | 9.0 | 13.0 | 0.00 | 0.00 | 0.00 | 50 | 1020.1 |
| 20260830225146 | 72 | 223 | 12.0 | 20.0 | 0.00 | 0.00 | 0.00 | 48 | 1020.3 |
| 20260830224645 | 72 | 264 | 10.0 | 18.0 | 0.00 | 0.00 | 0.00 | 50 | 1020.2 |
| 20260830224141 | 72 | 260 | 14.0 | 23.0 | 0.00 | 0.00 | 0.00 | 48 | 1020.0 |
| 20260830223638 | 72 | 284 | 14.0 | 18.0 | 0.00 | 0.00 | 0.00 | 50 | 1020.1 |
| 20260830223137 | 72 | 274 | 16.0 | 21.0 | 0.00 | 0.00 | 0.00 | 48 | 1019.9 |
| 20260830222632 | 72 | 247 | 11.0 | 21.0 | 0.00 | 0.00 | 0.00 | 50 | 1020.4 |
| 20260830222128 | 72 | 286 | 19.0 | 22.0 | 0.00 | 0.00 | 0.00 | 49 | 1020.2 |
| 20260830221624 | 72 | 274 | 12.0 | 23.0 | 0.00 | 0.00 | 0.00 | 51 | 1020.2 |
| 20260830221120 | 73 | 249 | 9.0 | 20.0 | 0.00 | 0.00 | 0.00 | 50 | 1020.3 |
| 20260830220615 | 73 | 278 | 16.0 | 18.0 | 0.00 | 0.00 | 0.00 | 49 | 1020.6 |
| 20260830220108 | 72 | 273 | 11.0 | 21.0 | 0.00 | 0.00 | 0.00 | 52 | 1020.7 |
| 20260830215607 | 72 | 263 | 15.0 | 18.0 | 0.00 | 0.00 | 0.00 | 51 | 1020.2 |
| 20260830215102 | 72 | 281 | 12.0 | 16.0 | 0.00 | 0.00 | 0.00 | 51 | 1020.3 |
| 20260830214557 | 72 | 266 | 20.0 | 25.0 | 0.00 | 0.00 | 0.00 | 49 | 1020.2 |
| 20260830214051 | 73 | 259 | 15.0 | 21.0 | 0.00 | 0.00 | 0.00 | 50 | 1020.2 |
| 20260830213546 | 73 | 264 | 13.0 | 15.0 | 0.00 | 0.00 | 0.00 | 49 | 1020.3 |
| 20260830213041 | 73 | 236 | 12.0 | 21.0 | 0.00 | 0.00 | 0.00 | 47 | 1020.6 |
| 20260830212537 | 73 | 257 | 12.0 | 22.0 | 0.00 | 0.00 | 0.00 | 47 | 1020.8 |
| 20260830212032 | 74 | 261 | 14.0 | 25.0 | 0.00 | 0.00 | 0.00 | 48 | 1020.7 |
| 20260830211526 | 74 | 228 | 12.0 | 20.0 | 0.00 | 0.00 | 0.00 | 48 | 1020.8 |
| 20260830211020 | 73 | 242 | 14.0 | 18.0 | 0.00 | 0.00 | 0.00 | 49 | 1020.8 |